• MPC Preparation (Info)

  • MPEC 2023-M36 : 2023 MH

    The following Minor Planet Electronic Circular may be linked-to from your own Web pages, but must not otherwise be redistributed electronically.

    A form allowing access to any MPEC is at the bottom of this page.


    Read MPEC 2023-M35 Read MPEC 2023-M37


    M.P.E.C. 2023-M36                                 Issued 2023 June 18, 13:45 UT
    
         The Minor Planet Electronic Circulars contain information on unusual
             minor planets, routine data on comets and natural satellites,
             and occasional editorial announcements.  They are published
        on behalf of Division F of the International Astronomical Union by the
              Minor Planet Center, Smithsonian Astrophysical Observatory,
                              Cambridge, MA 02138, U.S.A.
    			  
                 Prepared using the Tamkin Foundation Computer Network
    
                                  MPC@CFA.HARVARD.EDU
                URL https://www.minorplanetcenter.net/    ISSN 1523-6714
    
                                     2023 MH                                 
    
    
    Observations:
         K23M00H  C2023 06 13.31435 16 47 35.06 -15 53 12.8          20.8 GVEM036G96
         K23M00H  C2023 06 13.32852 16 47 30.93 -15 52 11.0          21.2 GVEM036G96
         K23M00H* C2023 06 16.40978916 34 27.464-12 23 31.92         21.66wXEM036F51
         K23M00H  C2023 06 16.42162616 34 24.481-12 22 46.32         21.68wXEM036F51
         K23M00H  C2023 06 16.44524516 34 18.579-12 21 15.90         21.43wXEM036F51
         K23M00H  C2023 06 16.51846316 34 00.550-12 16 35.48         20.93GVEM036F51
         K23M00H  C2023 06 16.52171716 33 59.764-12 16 22.97         21.29GVEM036F51
         K23M00H  C2023 06 16.52253216 33 59.507-12 16 18.86         21.07GVEM036F51
         K23M00H  C2023 06 17.24112816 31 18.339-11 31 45.33         20.8 GVEM036H01
         K23M00H  C2023 06 17.24553316 31 17.306-11 31 29.24         21.2 GVEM036H01
         K23M00H  C2023 06 17.26009616 31 13.848-11 30 35.65         20.7 GVEM036H01
         K23M00H  C2023 06 17.27079616 31 11.313-11 29 56.25         21.1 GVEM036H01
         K23M00H KC2023 06 17.27790616 31 09.770-11 29 29.60         21.14GVEM036I52
         K23M00H KC2023 06 17.28298016 31 08.550-11 29 11.40               VEM036I52
         K23M00H KC2023 06 17.28805016 31 07.370-11 28 51.60         21.62GVEM036I52
    
    Observer details:
    F51 Pan-STARRS 1, Haleakala.  Observers J. Bulger, T. Lowe, P. Minguez, A.
        Schultz, I. Smith, K. Chambers.  Measurers K. Chambers, T. de Boer, J.
        Bulger, J. Fairlamb, H. Gao, M. Huber, C.-C. Lin, T. Lowe, E. Magnier, P.
        Minguez, Y. Ramanjooloo, A. Schultz, I. Smith, R. Wainscoat, R. Weryk, S.
        Chastel.  1.8-m Ritchey-Chretien + CCD.
    G96 Mt. Lemmon Survey.  Observer A. Serrano.  Measurers B. Gray, D. Rankin, F.
        C. Shelly.  1.5-m reflector + 10K CCD.
    H01 Magdalena Ridge Observatory, Socorro.  Observers W. H. Ryan, E. V. Ryan.
        Measurer W. H. Ryan.  2.4-m f/8.9 Ritchey-Chretien + CCD.
    I52 Steward Observatory, Mt. Lemmon Station.  Observer H. Groeller.  Measurers
        E. J. Christensen, D. Fay, J. B. Fazekas, D. C. Fuls, A. R. Gibbs, A. D.
        Grauer, H. Groeller, J. K. Hogan, R. A. Kowalski, S. M. Larson, G. J.
        Leonard, D. Rankin, R. L. Seaman, A. Serrano, F. C. Shelly, K. W.
        Wierzchos.  1.0-m prime focus + CCD.
    
    Orbital elements:
    2023 MH                                                  Earth MOID = 0.1384 AU
    Epoch 2023 Feb. 25.0 TT = JDT 2460000.5                 Veres                   
    M  22.81791              (2000.0)            P               Q                  
    n   1.09867417     Peri.  203.58180     -0.16369527     -0.93799880             
    a   0.9301581      Node   256.98366     +0.94766259     -0.06345341             
    e   0.3469398      Incl.   18.27693     +0.27411579     -0.34078134             
    P   0.90           H   23.53          G   0.15           U   8                  
    Residuals in seconds of arc
    230613 G96  0.0   0.3-    230616 F51  0.3+  0.2-    230617 H01  0.0   0.1-
    230613 G96  0.0   0.3+    230616 F51  0.4+  0.2-    230617 H01  0.1-  0.0
    230616 F51  1.0+  0.7-    230616 F51  0.5-  0.8+    230617 I52  0.1-  0.2-
    230616 F51  0.6+  0.3-    230617 H01  0.0   0.0     230617 I52  0.4-  0.6-
    230616 F51  0.3+  0.2-    230617 H01  0.1+  0.1-    230617 I52  0.1-  0.5+
    
    Ephemeris:
    2023 MH                  a,e,i = 0.93, 0.35, 18                  q = 0.6074
    Date    TT    R. A. (2000) Decl.     Delta      r    Elong.  Phase     V
    2023 05 19    19 43 31.6 -45 18 39   0.1981  1.1349   124.2    47.5    22.1
    ...
    2023 06 03    17 47 55.3 -29 36 25   0.1786  1.1864   163.4    14.2    21.0
    ...
    2023 06 11    16 58 53.6 -18 44 51   0.1934  1.2079   174.4     4.7    20.8
    ...
    2023 06 17    16 32 12.4 -11 46 10   0.2159  1.2213   160.3    16.3    21.5
    2023 06 18    16 28 33.2 -10 45 38   0.2204  1.2233   158.1    18.0    21.6
    2023 06 19    16 25 06.7 -09 47 53   0.2251  1.2252   156.0    19.7    21.7
    ...
    2023 06 25    16 08 28.7 -04 57 29   0.2570  1.2354   144.9    28.3    22.3
    ...
    2023 07 03    15 55 02.5 -00 38 00   0.3061  1.2454   132.9    36.7    22.9
    ...
    2023 07 18    15 47 27.8 +03 15 43   0.4079  1.2528   116.5    46.5    23.8
    
    M. P. C. Staff               (C) Copyright 2023 MPC           M.P.E.C. 2023-M36
    


    Read MPEC 2023-M35 Read MPEC 2023-M37


    MPEC number:

    Enter an MPEC number in one of the following forms:

    • 1997-B01 (the full form)
    • J97B01 (the packed version of the full form)
    • B01 (the abbreviated form)